Regional Weather Roundup
Issued by NWS

Home | Current Version | Previous Version | Text Only | Print | Product List | Glossary Off
Versions: 1 2 3 4 5 6 7 8 9 10 11 12 13 14 15 16 17 18 19 20 21 22 23 24 25 26 27 28 29 30 31 32 33 34 35 36 37 38 39 40 41 42 43 44 45 46 47 48 49 50

000
ASUS43 KBIS 232159
RWRND

NORTH DAKOTA REGIONAL WEATHER ROUNDUP
NATIONAL WEATHER SERVICE BISMARCK ND
500 PM CDT TUE SEP 23 2014

NOTE: "FAIR" INDICATES FEW OR NO CLOUDS BELOW 12,000 FEET WITH NO
SIGNIFICANT WEATHER AND/OR OBSTRUCTIONS TO VISIBILITY.


NDZ001>003-009>011-017-232300-
NORTHWEST NORTH DAKOTA

CITY           SKY/WX    TMP DP  RH WIND       PRES   REMARKS
WILLISTON      SUNNY     84  51  31 MISG      29.82S
MINOT          SUNNY     78  57  48 S15       29.85S
MINOT AFB      SUNNY     78  59  51 S15       29.83F
$$

NDZ018>021-031>035-040>046-232300-
SOUTHWEST NORTH DAKOTA

CITY           SKY/WX    TMP DP  RH WIND       PRES   REMARKS
BISMARCK       CLOUDY    65  57  75 SE18      29.93S
GARRISON         N/A     73  59  61 S14       29.88S
HETTINGER ARPT SUNNY     79  55  43 E7        29.87F
$$

NDZ004>008-012>016-024-026-027-054-232300-
NORTHEAST NORTH DAKOTA

CITY           SKY/WX    TMP DP  RH WIND       PRES   REMARKS
GRAND FORKS    MOSUNNY   77  51  40 S17G26    29.96F
GRND FRKS AFB  MOSUNNY   76  52  43 S16       29.97S
DEVILS LAKE    SUNNY     73  55  53 S20G28    29.93S
$$

NDZ022-023-025-028>030-036>039-047>053-232300-
SOUTHEAST NORTH DAKOTA

CITY           SKY/WX    TMP DP  RH WIND       PRES   REMARKS
FARGO          MOSUNNY   71  50  47 SE18G28   30.03R
$$




USA.gov is the U.S. government's official web portal to all federal, state and local government web resources and services.